Provincetown, MA

10:32 PM EDT on April 25, 2017 (GMT -0400)
Provincetown Municipal

Weather History for KPVC - May, 2014

Change the Weather History Date:

Monday, May 5, 2014

  Actual Average Record
Temperature  
Mean Temperature 52 °F -  
Max Temperature 59 °F 58 °F 80 °F (2006)
Min Temperature 44 °F 44 °F 35 °F (2013)
Degree Days  
Heating Degree Days 14    
Growing Degree Days 2 (Base 50)    
Moisture  
Dew Point 42 °F    
Average Humidity 73    
Maximum Humidity 87    
Minimum Humidity 51    
Precipitation  
Precipitation 0.04 in - - ()
Sea Level Pressure  
Sea Level Pressure 29.74 in    
Wind  
Wind Speed - (North)    
Max Wind Speed -    
Max Gust Speed -    
Visibility 10 miles    
Events      
Averages and records for this station are not official NWS values.
T = Trace of Precipitation, MM = Missing Value Source: NWS Daily Summary

Daily Weather History Graph

Daily Weather History Graph

Search for Another Location

Airport or City:

Trip Planner

Search our weather history database for the weather conditions in past years. The results will help you decide how hot, cold, wet, or windy it might be!

Date:

Astronomy

May. 05, 2014 Rise Set
Actual Time 5:31 AM EDT 7:44 PM EDT
Civil Twilight 5:00 AM EDT 8:15 PM EDT
Nautical Twilight 4:22 AM EDT 8:53 PM EDT
Astronomical Twilight 3:40 AM EDT 9:35 PM EDT
Moon 10:48 AM EDT (5/5) 12:26 AM EDT (5/5)
Length of Visible Light 15h 14m
Length of Day
14h 12m
Waxing Crescent, 36% of the Moon is Illuminated
May 5
Waxing Crescent
May 6
First Quarter
May 14
Full
May 21
Last Quarter
May 28
New

Hourly Weather History & Observations

Time (EDT) Temp. Dew Point Humidity Pressure Visibility Wind Dir Wind Speed Gust Speed Precip Events Conditions
12:15 AM 46.4 °F 39.2 °F 76% 29.60 in 10.0 mi North - - N/A   Clear
12:35 AM 46.4 °F 39.2 °F 76% 29.61 in 10.0 mi North - - N/A   Clear
12:55 AM 46.4 °F 39.2 °F 76% 29.60 in 10.0 mi North - - 0.01 in   Partly Cloudy
1:15 AM 46.4 °F 39.2 °F 76% 29.60 in 10.0 mi North - - N/A   Clear
1:35 AM 46.4 °F 39.2 °F 76% 29.60 in 10.0 mi North - - N/A   Mostly Cloudy
1:55 AM 46.4 °F 39.2 °F 76% 29.60 in 10.0 mi North - - N/A   Mostly Cloudy
2:15 AM 46.4 °F 39.2 °F 76% 29.61 in 10.0 mi North - - N/A   Scattered Clouds
2:35 AM 46.4 °F 39.2 °F 76% 29.61 in 10.0 mi North - - 0.01 in   Mostly Cloudy
2:55 AM 46.4 °F 41.0 °F 81% 29.61 in 10.0 mi North - - 0.01 in   Overcast
3:15 AM 46.4 °F 42.8 °F 87% 29.62 in 10.0 mi North - - N/A   Overcast
3:35 AM 46.4 °F 42.8 °F 87% 29.62 in 10.0 mi North - - N/A   Overcast
3:55 AM 46.4 °F 42.8 °F 87% 29.63 in 10.0 mi North - - N/A   Overcast
4:15 AM 46.4 °F 41.0 °F 81% 29.64 in 10.0 mi North - - N/A   Overcast
4:35 AM 46.4 °F 42.8 °F 87% 29.65 in 10.0 mi North - - 0.01 in   Overcast
4:55 AM 46.4 °F 41.0 °F 81% 29.65 in 10.0 mi North - - 0.01 in   Overcast
5:15 AM 46.4 °F 42.8 °F 87% 29.66 in 10.0 mi North - - N/A   Overcast
5:35 AM 46.4 °F 42.8 °F 87% 29.67 in 10.0 mi North - - N/A   Overcast
5:55 AM 46.4 °F 42.8 °F 87% 29.68 in 10.0 mi North - - N/A   Mostly Cloudy
6:15 AM 46.4 °F 42.8 °F 87% 29.69 in 10.0 mi North - - N/A   Partly Cloudy
6:35 AM 46.4 °F 42.8 °F 87% 29.70 in 10.0 mi North - - N/A   Mostly Cloudy
6:55 AM 48.2 °F 42.8 °F 82% 29.72 in 10.0 mi North - - N/A   Overcast
7:15 AM 48.2 °F 42.8 °F 82% 29.72 in 10.0 mi North - - N/A   Overcast
7:35 AM 48.2 °F 42.8 °F 82% 29.73 in 10.0 mi North - - N/A   Mostly Cloudy
7:55 AM 48.2 °F 42.8 °F 82% 29.73 in 10.0 mi North - - N/A   Mostly Cloudy
8:15 AM 48.2 °F 42.8 °F 82% 29.74 in 10.0 mi North - - 0.01 in   Overcast
8:35 AM 50.0 °F 42.8 °F 76% 29.74 in 10.0 mi North - - 0.01 in   Overcast
8:55 AM 50.0 °F 42.8 °F 76% 29.74 in 10.0 mi North - - 0.01 in   Overcast
9:15 AM 51.8 °F 42.8 °F 71% 29.75 in 10.0 mi North - - N/A   Mostly Cloudy
9:35 AM 53.6 °F 42.8 °F 67% 29.75 in 10.0 mi North - - N/A   Scattered Clouds
9:55 AM 51.8 °F 42.8 °F 71% 29.75 in 10.0 mi North - - N/A   Scattered Clouds
10:15 AM 51.8 °F 42.8 °F 71% 29.76 in 10.0 mi North - - N/A   Mostly Cloudy
10:35 AM 53.6 °F 44.6 °F 72% 29.76 in 10.0 mi North - - N/A   Partly Cloudy
10:55 AM 55.4 °F 44.6 °F 67% 29.76 in 10.0 mi North - - N/A   Clear
11:15 AM 55.4 °F 42.8 °F 63% 29.77 in 10.0 mi North - - N/A   Scattered Clouds
11:35 AM 55.4 °F 42.8 °F 63% 29.76 in 10.0 mi North - - N/A   Mostly Cloudy
11:55 AM 55.4 °F 44.6 °F 67% 29.76 in 10.0 mi North - - N/A   Partly Cloudy
12:15 PM 57.2 °F 44.6 °F 63% 29.76 in 10.0 mi North - - N/A   Partly Cloudy
12:35 PM 57.2 °F 44.6 °F 63% 29.76 in 10.0 mi North - - N/A   Scattered Clouds
12:55 PM 57.2 °F 44.6 °F 63% 29.76 in 10.0 mi North - - N/A   Partly Cloudy
1:15 PM 57.2 °F 42.8 °F 59% 29.76 in 10.0 mi North - - N/A   Clear
1:35 PM 57.2 °F 42.8 °F 59% 29.76 in 10.0 mi North - - N/A   Clear
2:15 PM 57.2 °F 42.8 °F 59% 29.76 in 10.0 mi North - - N/A   Overcast
2:35 PM 57.2 °F 44.6 °F 63% 29.76 in 10.0 mi North - - N/A   Scattered Clouds
2:55 PM 57.2 °F 44.6 °F 63% 29.76 in 10.0 mi North - - N/A   Clear
3:15 PM 57.2 °F 42.8 °F 59% 29.75 in 10.0 mi North - - N/A   Mostly Cloudy
3:35 PM 55.4 °F 42.8 °F 63% 29.76 in 10.0 mi North - - N/A   Overcast
3:55 PM 57.2 °F 42.8 °F 59% 29.76 in 10.0 mi North - - N/A   Mostly Cloudy
4:15 PM 57.2 °F 42.8 °F 59% 29.76 in 10.0 mi North - - N/A   Partly Cloudy
4:35 PM 57.2 °F 42.8 °F 59% 29.76 in 10.0 mi North - - N/A   Partly Cloudy
4:55 PM 59.0 °F 42.8 °F 55% 29.76 in 10.0 mi North - - N/A   Scattered Clouds
5:15 PM 59.0 °F 42.8 °F 55% 29.76 in 10.0 mi North - - N/A   Scattered Clouds
5:35 PM 59.0 °F 41.0 °F 51% 29.76 in 10.0 mi North - - N/A   Scattered Clouds
5:55 PM 57.2 °F 41.0 °F 55% 29.77 in 10.0 mi North - - N/A   Mostly Cloudy
6:15 PM 55.4 °F 42.8 °F 63% 29.77 in 10.0 mi North - - N/A   Scattered Clouds
6:35 PM 55.4 °F 42.8 °F 63% 29.78 in 10.0 mi North - - N/A   Scattered Clouds
6:55 PM 53.6 °F 42.8 °F 67% 29.78 in 10.0 mi North - - N/A   Partly Cloudy
7:15 PM 53.6 °F 42.8 °F 67% 29.79 in 10.0 mi North - - N/A   Clear
7:35 PM 53.6 °F 42.8 °F 67% 29.80 in 10.0 mi North - - N/A   Clear
7:55 PM 51.8 °F 42.8 °F 71% 29.81 in 10.0 mi North - - N/A   Clear
8:15 PM 48.2 °F 42.8 °F 82% 29.81 in 10.0 mi North - - N/A   Clear
8:35 PM 48.2 °F 42.8 °F 82% 29.82 in 10.0 mi North - - N/A   Clear
8:55 PM 46.4 °F 42.8 °F 87% 29.82 in 10.0 mi North - - N/A   Clear
9:15 PM 46.4 °F 41.0 °F 81% 29.83 in 10.0 mi North - - N/A   Clear
9:35 PM 46.4 °F 42.8 °F 87% 29.84 in 10.0 mi North - - N/A   Clear
9:55 PM 44.6 °F 39.2 °F 81% 29.83 in 10.0 mi North - - N/A   Clear
10:15 PM 50.0 °F 42.8 °F 76% 29.84 in 10.0 mi North - - N/A   Clear
10:35 PM 48.2 °F 41.0 °F 76% 29.84 in 10.0 mi North - - N/A   Clear
10:55 PM 48.2 °F 41.0 °F 76% 29.84 in 10.0 mi North - - N/A   Clear
11:15 PM 48.2 °F 41.0 °F 76% 29.85 in 10.0 mi North - - N/A   Clear
11:35 PM 48.2 °F 41.0 °F 76% 29.85 in 10.0 mi North - - N/A   Clear
11:55 PM 48.2 °F 41.0 °F 76% 29.85 in 10.0 mi North - - N/A   Clear